Wind_Speed
12 12 12 12 12 12 12 12 12 13 14 14 14 15 15 15 14 14 15 15 15 16 16 17 17 17 17 18 19 20 20 20 20 21 21 21 22 22
13 13 13 12 12 13 13 14 14 14 14 15 15 15 15 16 15 15 15 16 16 16 16 16 16 17 18 19 19 19 20 20 20 21 21 22 22 23
14 14 14 13 14 14 15 15 15 16 15 16 16 16 16 17 16 16 16 17 17 17 17 17 17 17 17 19 20 21 21 21 21 21 22 21 22 22
15 15 15 15 15 16 16 16 17 18 18 17 17 18 18 18 17 17 18 17 17 18 18 18 18 18 18 19 20 21 21 22 22 22 22 22 22 22
17 17 17 16 16 17 18 18 18 18 19 18 19 19 19 19 19 19 19 18 18 18 19 20 19 19 19 20 21 21 22 22 22 23 23 23 23 23
18 18 18 17 17 18 18 19 19 19 20 20 20 20 20 20 20 20 20 20 20 20 20 20 20 20 20 21 22 22 22 23 23 23 23 23 24 23
18 19 19 19 19 19 19 20 20 21 21 21 22 22 21 21 21 21 21 22 22 21 21 22 22 22 22 22 23 23 23 23 23 23 24 24 23 23
19 19 20 21 20 20 20 21 21 22 22 22 23 22 22 22 22 22 22 22 22 22 22 22 22 22 22 22 23 22 23 24 24 24 24 24 24 23
20 20 20 21 22 22 23 23 24 24 24 24 23 23 23 23 23 23 23 23 23 23 23 22 23 22 22 22 23 23 23 23 23 23 23 23 24 24
22 21 22 23 24 25 25 25 26 26 27 26 26 26 25 25 25 24 24 24 24 24 24 23 23 23 22 22 23 23 23 23 23 23 23 23 23 24
24 24 25 26 27 27 27 27 27 27 28 27 27 26 26 25 25 24 24 24 24 24 25 25 24 24 23 23 23 24 23 24 24 24 24 25 25 24
26 26 26 27 27 28 28 28 28 29 29 28 28 27 26 25 25 25 25 25 25 25 25 25 25 25 24 24 24 25 25 25 25 25 25 26 26 25
27 27 27 28 28 29 29 30 30 30 29 29 28 27 26 26 25 26 26 26 26 26 25 25 25 26 26 25 25 25 24 25 26 26 26 26 26 26
27 27 27 28 29 29 30 30 30 30 30 29 28 27 27 27 26 26 26 26 26 26 26 26 26 26 26 26 26 26 25 25 26 27 27 28 27 27
28 28 28 29 29 29 30 30 30 30 29 29 28 27 27 27 27 27 27 26 27 26 26 26 26 26 26 26 26 27 27 27 27 28 28 27 27 27
28 29 29 29 30 29 29 30 30 29 28 28 27 27 27 27 27 27 27 26 26 26 26 26 26 26 26 27 27 27 28 28 28 27 27 26 26 26
30 30 30 29 30 30 30 30 29 28 28 28 27 27 27 27 27 26 26 26 26 26 26 26 26 26 26 27 27 27 28 28 28 28 27 27 26 26
30 30 30 29 30 30 29 29 28 28 28 28 27 27 27 27 27 27 27 26 25 25 25 25 26 26 26 26 27 27 27 26 27 27 27 27 27 27
31 31 30 30 30 30 29 29 29 29 28 28 28 28 28 28 28 27 27 27 26 26 26 26 26 26 26 27 27 27 27 26 26 26 26 27 27 27
32 31 32 31 31 30 30 30 30 29 29 28 28 28 28 28 28 27 27 27 27 27 27 27 27 27 27 27 26 27 27 26 26 26 26 26 26 26
32 32 31 31 31 31 31 30 29 29 28 28 27 27 27 28 28 28 28 28 27 27 27 27 27 27 27 27 27 26 26 26 26 25 25 26 26 26
33 32 31 30 31 30 30 29 29 29 28 28 27 28 28 28 28 28 29 29 29 29 29 28 28 28 28 28 27 27 27 26 26 26 26 26 26 26
32 31 31 30 30 30 29 30 29 29 29 29 28 29 29 28 29 29 30 30 30 29 29 29 28 29 29 29 28 27 27 27 26 26 26 27 27 27
Wind_Direction
320 321 319 318 317 317 318 318 318 318 318 318 318 317 314 312 312 311 309 306 302 302 300 297 294 290 288 288 288 286 284 284 283 280 278 278 276 274
318 319 318 318 317 316 315 313 313 314 312 312 314 314 312 311 308 307 306 305 303 301 302 300 297 292 288 288 289 288 288 287 285 283 282 281 278 275
312 313 313 312 313 314 314 312 311 310 308 308 309 310 309 307 306 305 304 305 304 302 301 299 295 293 291 290 288 286 286 285 283 282 282 282 280 277
309 309 310 309 309 310 310 309 308 309 310 309 306 306 306 305 303 303 302 302 302 299 299 299 297 293 293 290 289 287 286 285 284 282 281 281 279 277
307 306 307 307 307 308 308 308 307 308 308 308 307 304 303 302 301 303 304 301 299 297 297 299 298 295 294 293 290 290 289 287 284 282 280 280 280 279
304 302 303 305 306 308 308 308 308 308 309 309 307 306 303 300 300 301 301 300 298 297 295 296 295 295 295 293 291 290 289 288 286 283 282 282 281 278
303 302 302 305 306 307 307 307 307 307 307 307 307 305 303 302 300 299 299 299 299 297 294 294 293 293 294 293 293 292 290 289 289 287 285 284 281 278
304 302 303 306 306 306 306 307 307 306 306 306 305 303 302 301 300 299 299 297 297 296 295 294 292 291 292 293 293 292 291 290 288 287 286 285 282 280
301 302 304 306 305 303 304 305 305 304 304 306 303 301 301 300 299 299 298 297 296 297 295 295 294 292 292 292 294 294 292 291 290 288 287 286 284 282
301 302 303 303 304 302 304 305 306 306 305 305 304 300 300 299 297 296 296 296 297 297 296 296 295 293 292 292 293 294 293 293 292 292 291 290 288 284
301 301 301 302 303 302 302 303 304 305 306 304 303 302 300 297 296 297 296 296 296 295 295 294 294 292 293 292 292 292 292 293 293 292 292 291 289 287
299 299 300 300 301 301 301 301 302 302 303 303 302 300 299 296 295 296 296 295 295 294 293 292 292 292 292 293 293 292 292 292 293 291 291 290 290 289
300 299 298 299 300 300 301 301 301 302 301 300 299 298 296 294 293 293 294 293 293 294 293 293 293 291 292 293 293 294 293 291 290 290 290 290 289 289
301 300 299 300 300 301 301 300 300 301 300 300 298 295 294 293 293 292 292 292 292 293 293 294 293 292 293 294 294 294 293 292 291 291 290 290 288 287
300 300 299 300 301 301 301 301 301 301 300 299 298 296 294 294 294 294 293 292 293 293 293 294 294 295 295 295 295 295 294 293 292 291 291 291 289 288
299 300 300 300 301 301 300 301 301 301 301 300 298 297 296 296 296 295 294 293 293 293 293 293 293 294 295 296 296 296 294 293 292 291 290 289 289 288
298 298 298 299 300 300 300 300 300 299 299 299 298 298 296 296 295 295 295 294 292 292 292 293 293 294 295 297 297 296 296 295 294 293 291 290 289 289
296 295 295 296 298 299 299 300 300 300 298 297 297 297 296 294 295 295 294 293 292 293 293 293 293 293 295 297 297 297 297 295 295 294 293 291 289 289
295 296 296 297 298 298 298 298 297 297 298 298 297 297 297 296 295 295 294 292 292 292 294 294 294 294 295 295 297 297 296 295 294 294 293 292 290 290
293 295 296 296 296 296 296 297 297 296 297 297 297 297 297 297 296 297 296 293 293 294 294 294 294 296 296 296 296 296 296 294 294 292 292 295 294 293
292 293 295 295 295 295 295 297 296 296 297 296 296 296 296 296 295 295 295 294 293 293 293 294 294 295 295 296 296 295 295 295 294 294 293 294 294 294
291 291 292 294 295 295 296 296 296 296 296 296 295 294 295 294 293 294 295 293 293 293 292 293 293 294 295 296 295 294 292 292 293 294 294 294 294 295
290 290 290 291 292 293 294 294 294 294 295 294 293 293 294 294 294 293 294 294 294 293 292 292 293 293 293 293 293 294 293 292 292 292 292 293 295 296
Height
5874 5873 5872 5871 5869 5868 5867 5865 5864 5862 5861 5859 5857 5855 5853 5851 5849 5848 5846 5845 5844 5842 5841 5840 5839 5838 5837 5836 5835 5834 5833 5832 5831 5831 5830 5829 5828 5828
5872 5871 5870 5868 5867 5865 5864 5862 5861 5859 5857 5855 5853 5851 5849 5846 5845 5844 5843 5841 5840 5838 5837 5836 5834 5833 5832 5831 5830 5828 5827 5826 5826 5825 5824 5823 5822 5821
5870 5868 5867 5866 5864 5863 5861 5859 5857 5855 5853 5851 5850 5848 5845 5844 5842 5840 5838 5837 5835 5834 5832 5831 5829 5828 5827 5825 5824 5823 5822 5820 5819 5818 5817 5816 5815 5814
5866 5865 5864 5862 5861 5859 5857 5855 5853 5851 5849 5847 5846 5843 5841 5839 5837 5836 5834 5833 5831 5829 5827 5826 5824 5823 5821 5820 5818 5817 5816 5814 5813 5812 5811 5810 5809 5808
5863 5861 5860 5858 5857 5855 5853 5851 5849 5847 5845 5843 5841 5839 5837 5835 5833 5831 5829 5827 5826 5824 5822 5820 5819 5817 5815 5813 5812 5811 5809 5808 5806 5805 5804 5803 5802 5801
5859 5857 5856 5854 5852 5850 5849 5847 5845 5843 5841 5838 5836 5834 5832 5830 5828 5826 5824 5822 5820 5818 5816 5815 5813 5811 5809 5808 5806 5805 5803 5801 5800 5798 5797 5796 5795 5794
5854 5853 5851 5850 5848 5846 5844 5842 5840 5838 5835 5833 5831 5829 5826 5824 5822 5820 5818 5816 5814 5812 5811 5809 5807 5805 5803 5801 5800 5798 5796 5795 5793 5791 5790 5789 5788 5787
5850 5848 5847 5845 5843 5841 5839 5837 5834 5832 5830 5827 5825 5823 5820 5818 5816 5814 5812 5810 5808 5807 5805 5803 5801 5799 5797 5795 5793 5792 5790 5788 5786 5784 5783 5782 5780 5779
5845 5844 5842 5840 5838 5835 5833 5831 5828 5826 5823 5821 5819 5816 5814 5812 5810 5808 5806 5804 5802 5800 5798 5796 5795 5793 5791 5789 5787 5785 5783 5781 5779 5777 5776 5774 5773 5772
5840 5838 5836 5834 5832 5829 5827 5825 5822 5820 5817 5814 5812 5810 5807 5805 5803 5801 5799 5797 5796 5793 5791 5790 5788 5786 5784 5782 5780 5778 5776 5774 5772 5771 5769 5767 5766 5764
5834 5832 5830 5828 5826 5823 5821 5818 5816 5813 5810 5808 5805 5803 5800 5798 5796 5794 5792 5790 5788 5787 5785 5783 5781 5779 5777 5775 5773 5771 5769 5767 5765 5764 5762 5760 5759 5757
5828 5826 5824 5821 5819 5816 5814 5811 5809 5806 5803 5801 5798 5795 5793 5791 5789 5787 5785 5783 5781 5779 5777 5775 5774 5772 5770 5768 5766 5764 5762 5760 5758 5756 5754 5753 5751 5749
5821 5819 5817 5814 5812 5809 5806 5804 5801 5798 5796 5793 5791 5788 5786 5784 5782 5779 5777 5775 5774 5772 5770 5768 5766 5764 5762 5760 5759 5756 5754 5752 5750 5748 5746 5745 5743 5741
5814 5812 5809 5807 5805 5802 5799 5796 5793 5790 5788 5785 5783 5780 5778 5776 5774 5772 5770 5768 5766 5764 5762 5760 5758 5756 5754 5752 5751 5749 5747 5745 5742 5740 5738 5737 5735 5733
5807 5804 5802 5800 5797 5794 5791 5788 5785 5782 5780 5778 5775 5773 5771 5769 5767 5765 5762 5760 5758 5756 5754 5752 5751 5749 5747 5745 5743 5741 5739 5737 5735 5733 5731 5728 5726 5724
5799 5797 5794 5792 5789 5787 5784 5781 5778 5775 5772 5770 5767 5765 5763 5761 5759 5757 5755 5753 5751 5749 5747 5745 5743 5741 5739 5737 5735 5733 5731 5728 5726 5724 5722 5720 5718 5716
5791 5789 5786 5784 5781 5779 5776 5773 5770 5767 5765 5762 5760 5758 5756 5754 5752 5749 5747 5745 5744 5742 5740 5738 5736 5733 5731 5729 5727 5725 5723 5720 5718 5716 5714 5712 5710 5708
5783 5780 5778 5775 5773 5771 5768 5765 5763 5760 5757 5755 5753 5750 5748 5746 5744 5742 5740 5738 5736 5735 5733 5731 5728 5726 5724 5722 5720 5717 5715 5712 5710 5707 5705 5703 5701 5699
5774 5772 5769 5767 5764 5762 5759 5757 5754 5752 5749 5747 5745 5743 5740 5738 5736 5734 5732 5730 5729 5727 5725 5723 5720 5718 5716 5714 5712 5709 5706 5704 5702 5699 5697 5695 5693 5691
5765 5763 5760 5758 5755 5753 5750 5748 5746 5744 5741 5739 5737 5734 5732 5730 5728 5726 5724 5722 5720 5719 5717 5715 5713 5710 5708 5706 5704 5701 5698 5696 5693 5691 5689 5687 5685 5682
5756 5754 5751 5748 5746 5744 5742 5740 5737 5735 5733 5731 5728 5726 5724 5722 5720 5718 5717 5714 5712 5711 5709 5707 5705 5702 5700 5698 5696 5693 5691 5688 5685 5683 5681 5679 5677 5674
5746 5744 5742 5739 5737 5735 5733 5731 5729 5726 5724 5722 5720 5718 5716 5714 5712 5710 5708 5706 5704 5702 5700 5698 5696 5694 5692 5689 5687 5685 5683 5681 5678 5675 5673 5671 5668 5666
5737 5735 5733 5731 5728 5726 5724 5722 5720 5718 5716 5714 5712 5710 5708 5706 5704 5702 5700 5697 5695 5693 5691 5690 5687 5685 5683 5681 5679 5677 5675 5672 5670 5668 5666 5663 5660 5658